Location: Kikino
(54.4440°N, 112.0940°W)
Time: 19:51:27
(UTC+00:00)

A-11 Canister half - Pass Details

Date: 28 May 2024
Orbit: 1525 x 1683 km, 47.3° (Epoch: 12 June)

Event Time Altitude Azimuth Distance (km) Brightness Sun altitude
Rises 04:52:10 0° 245° (WSW) 4,683 11.7 -7.2°
Reaches altitude 10° 04:55:16 10° 241° (WSW) 3,713 11.1 -7.5°
Maximum altitude 05:04:16 54° 168° (SSE) 1,855 9.1 -8.2°
Drops below altitude 10° 05:13:32 10° 95° (E) 3,825 10.7 -8.9°
Sets 05:16:46 0° 91° (E) 4,833 11.3 -9.1°
